Weather History for KLVK - July, 2013

Change the Weather History Date:

Saturday, July 27, 2013

  Actual Average Record
Temperature  
Mean Temperature 72 °F 73 °F  
Max Temperature 87 °F 88 °F 108 °F (1933)
Min Temperature 57 °F 57 °F 47 °F (1965)
Degree Days  
Heating Degree Days 0 0  
Month to date heating degree days 0 0  
Since 1 June heating degree days 5 32  
Since 1 July heating degree days 0 0  
Cooling Degree Days 7 8  
Month to date cooling degree days 259 202  
Year to date cooling degree days 550 365  
Since 1 June cooling degree days 449 312  
Growing Degree Days 22 (Base 50)    
Moisture  
Dew Point 55 °F    
Average Humidity 63    
Maximum Humidity 93    
Minimum Humidity 32    
Precipitation  
Precipitation 0.00 in 0.00 in 0.00 in (2015)
Month to date precipitation 0.00 0.00  
Year to date precipitation 2.12 9.90  
Since 1 July precipitation 0.00  
Sea Level Pressure  
Sea Level Pressure 29.93 in    
Wind  
Wind Speed 9 mph (WNW)    
Max Wind Speed 16 mph    
Max Gust Speed 26 mph    
Visibility 9 miles    
Events      
T = Trace of Precipitation, MM = Missing Value Source: NWS Daily Summary

Daily Weather History Graph

Daily Weather History Graph

Search for Another Location

Airport or City:

Trip Planner

Search our weather history database for the weather conditions in past years. The results will help you decide how hot, cold, wet, or windy it might be!

Date:

Astronomy

Jul. 27, 2013 Rise Set
Actual Time 6:07 AM PDT 8:19 PM PDT
Civil Twilight 5:37 AM PDT 8:49 PM PDT
Nautical Twilight 5:01 AM PDT 9:25 PM PDT
Astronomical Twilight 4:22 AM PDT 10:04 PM PDT
Moon 11:18 PM PDT (7/27) 11:45 AM PDT (7/27)
Length of Visible Light 15h 11m
Length of Day
14h 12m
Waning Gibbous, 70% of the Moon is Illuminated
Jul 27
Waning Gibbous
Jul 29
Last Quarter
Aug 6
New
Aug 14
First Quarter
Aug 20
Full

Hourly Weather History & Observations

Time (PDT) Temp. Heat Index Dew Point Humidity Pressure Visibility Wind Dir Wind Speed Gust Speed Precip Events Conditions
12:53 AM 59.0 °F - 54.0 °F 83% 30.00 in 10.0 mi West 8.1 mph - N/A   Clear
1:53 AM 59.0 °F - 54.0 °F 83% 29.99 in 10.0 mi WNW 6.9 mph - N/A   Clear
2:53 AM 59.0 °F - 54.0 °F 83% 29.97 in 10.0 mi WNW 8.1 mph - N/A   Clear
3:53 AM 57.9 °F - 55.0 °F 90% 29.98 in 8.0 mi WNW 8.1 mph - N/A   Clear
4:09 AM 57.2 °F - 55.4 °F 94% 29.99 in 8.0 mi WNW 8.1 mph - N/A   Mostly Cloudy
4:37 AM 57.2 °F - 55.4 °F 94% 29.99 in 7.0 mi WNW 10.4 mph - N/A   Overcast
4:53 AM 57.0 °F - 55.0 °F 93% 29.98 in 6.0 mi WNW 10.4 mph - N/A   Overcast
5:41 AM 57.2 °F - 55.4 °F 94% 29.99 in 7.0 mi NW 10.4 mph - N/A   Overcast
5:53 AM 57.0 °F - 55.0 °F 93% 29.99 in 8.0 mi WNW 8.1 mph - N/A   Overcast
6:53 AM 57.0 °F - 54.0 °F 89% 29.99 in 10.0 mi NW 8.1 mph - N/A   Overcast
7:53 AM 57.9 °F - 55.0 °F 90% 30.00 in 10.0 mi NW 9.2 mph - N/A   Overcast
8:53 AM 61.0 °F - 55.9 °F 83% 30.00 in 8.0 mi Calm Calm - N/A   Mostly Cloudy
9:02 AM 62.6 °F - 55.4 °F 77% 30.00 in 8.0 mi West 3.5 mph - N/A   Mostly Cloudy
9:53 AM 66.9 °F - 55.9 °F 68% 29.98 in 8.0 mi WNW 4.6 mph - N/A   Mostly Cloudy
10:00 AM 66.2 °F - 55.4 °F 68% 29.98 in 10.0 mi Calm Calm - N/A   Clear
10:53 AM 72.0 °F - 55.9 °F 57% 29.96 in 10.0 mi WNW 4.6 mph - N/A   Clear
11:53 AM 79.0 °F - 55.0 °F 44% 29.93 in 10.0 mi WNW 9.2 mph - N/A   Clear
12:53 PM 82.0 °F 81.4 °F 55.0 °F 39% 29.92 in 10.0 mi WNW 13.8 mph - N/A   Clear
1:53 PM 84.0 °F 82.6 °F 54.0 °F 35% 29.90 in 10.0 mi WNW 11.5 mph - N/A   Clear
2:53 PM 86.0 °F 84.2 °F 54.0 °F 33% 29.88 in 10.0 mi WNW 10.4 mph - N/A   Clear
3:53 PM 86.0 °F 84.7 °F 55.9 °F 36% 29.86 in 10.0 mi WNW 11.5 mph - N/A   Clear
4:53 PM 84.9 °F 83.7 °F 55.9 °F 37% 29.84 in 10.0 mi WNW 11.5 mph - N/A   Clear
5:53 PM 82.0 °F 81.6 °F 55.9 °F 41% 29.83 in 10.0 mi NW 13.8 mph - N/A   Clear
6:53 PM 78.1 °F - 54.0 °F 43% 29.83 in 10.0 mi WNW 15.0 mph - N/A   Clear
7:53 PM 72.0 °F - 53.1 °F 51% 29.84 in 10.0 mi WNW 12.7 mph - N/A   Clear
8:53 PM 66.0 °F - 53.1 °F 63% 29.85 in 10.0 mi WNW 11.5 mph - N/A   Clear
9:53 PM 62.1 °F - 53.1 °F 72% 29.87 in 10.0 mi WNW 12.7 mph - N/A   Clear
10:53 PM 61.0 °F - 53.1 °F 75% 29.86 in 10.0 mi West 8.1 mph - N/A   Clear
11:53 PM 60.1 °F - 53.1 °F 78% 29.86 in 10.0 mi West 6.9 mph - N/A   Clear